[Date Prev][Date Next][Thread Prev][Thread Next] - [Date Index][Thread Index][Author Index]
2 Line ISS Keps 4-13
- Subject: [sarex] 2 Line ISS Keps 4-13
- From: "Dave Larsen PhD" <doc@xxxxxxxxxxx>
- Date: Sat, 13 Apr 2002 03:11:02 -0700
ISS
1 25544U 98067A 02103.16080318 .00088025 00000-0 10277-2 0 2954
2 25544 51.6377 19.6347 0002948 26.6623 78.4746 15.60868039193891
----
Via the sarex mailing list at AMSAT.ORG courtesy of AMSAT-NA.
To unsubscribe, send "unsubscribe sarex" to Majordomo@amsat.org
AMSAT Home